COSMOS 1753

Satellite information

Favourite Embed

Satellite Type and Status

PAYLOADIN ORBIT

Key statistics

Satellite COSMOS 1753 at a glance.

Uptime

14274

Days in orbit

Revolutions

≈ 12.5

Per day

Orbit

LEO

Low Earth Orbit

Inclination

74.0

Latest

Satellite identification and parameters

Extended collection of information and parameters for COSMOS 1753.

Object identification

Identified? True

Debris? False

Object name: COSMOS 1753

International designator: 1986-042F

Object number (NORAD): 16763

Object ID (CCSDS): 16763

Country: COMMONWEALTH OF INDEPENDENT STATES (CIS)

Current information (Y/N): Y

RCS size: MEDIUM

Orbital parameters

Period: 115.302 minutes

Inclination: 74.018 deg

SMA: 7847.241 km

Apoapsis: 1476.687 km

Periapsis: 1461.525 km

RAAN: 103.5856 deg

Eccentricy: 0.0009661

Argument of periapsis: 35.6393 deg

Mean anomaly: 117.6474 deg

Mean motion: 12.48898826 rev/day

Mean motion (dot): -0.00000007 rev/day2

B* drag term: 0.000056365 1/REarth

Two-line elements (TLE)

Creation date: July 4, 2025, 6:39 p.m.

Reference frame: TEME

Reference center: EARTH

Epoch: July 4, 2025, 4:09 a.m. UTC

TLE line 0: 0 COSMOS 1753

TLE line 1: 1 16763U 86042F 25185.17318948 -.00000007 00000-0 56365-4 0 9992

TLE line 2: 2 16763 74.0180 103.5856 0009661 35.6393 117.6474 12.48898826781635

Live tracking on map

Real-time ground track for satellite COSMOS 1753.

In-orbit conjunctions

There are no conjunctions computed for COSMOS 1753, at the moment. Check back to stay up to date, as we update our databases every day.

Go to all conjunctions

Associated space launch

Military communications satellites

COSMOS 1753 was lifted into orbit during the mission ‘Kosmos-3M | Strela-1M 305-312’, on board a Kosmos-3M space rocket.

The launch took place on June 6, 1986, 3:57 a.m. from 132/1 (132L).

For more information about the launch, click the button.

Launch to space Kosmos-3M | Strela-1M 305-312
Kosmos-3M | Strela-1M 305-312

Agency: N/A

Status: Launch Successful

Launch date: June 6, 1986, 3:57 a.m. UTC

Rocket: Kosmos-3M

Launch pad: 132/1 (132L)

Location: Plesetsk Cosmodrome, Russian Federation

...

Latest news about this satellite

There are no fresh news available about this satellite. Check back as we update our databases every day.


Newsletter sign-up

Weekly statistics, charts and insights to help you stay on top of the space industry.